Location: Hickory_Viewmont
(35.7830°N, 81.3170°W)
Time: 10:46:07
(UTC-04:00)

Daily predictions for brighter satellites

Satellite Brightness Start Highest point End
(mag) Time Altitude Azimuth Time Altitude Azimuth Time Altitude Azimuth
Cosmos 1634 Rocket 4.2 20:25:45 10° SSE 20:31:50 54° E 20:37:59 10° NNE
Cosmos 1092 Rocket 4.1 20:28:50 10° N 20:35:10 65° E 20:41:26 10° SSE
Cosmos 1869 Rocket 3.6 20:33:50 10° N 20:38:20 83° E 20:42:47 10° S
Sakura Rocket 4.3 20:36:21 10° SSW 20:38:54 18° SSE 20:41:40 10° ESE
CZ-3B DEB 3.0 20:38:35 10° WNW 20:41:45 20° WSW 20:43:50 10° SSW
ERBS 2.3 20:39:22 10° NW 20:42:50 81° NE 20:46:18 10° SE
USA 186 2.6 20:40:36 10° SE 20:42:57 26° ENE 20:45:28 10° NNE
Cosmos 2227 4.3 20:39:24 10° NNW 20:45:10 89° ENE 20:50:51 10° SSE
Resurs 1-3 3.7 20:42:11 10° SSE 20:46:29 60° ENE 20:50:49 10° N
Cosmos 1455 3.5 20:46:22 10° SSW 20:49:59 45° W 20:53:38 10° N
Cosmos 1862 4.5 20:46:46 10° NNE 20:50:09 25° ENE 20:53:19 11° SE
Meteor 2-20 4.5 20:45:59 10° N 20:52:06 70° E 20:58:12 10° SSE
USA 229 DEB 4.3 20:51:23 10° S 20:57:19 33° ESE 21:03:19 10° NE
USA 229 4.3 20:51:31 10° S 20:57:25 33° ESE 21:03:25 10° NE
Cosmos 2242 Rocket 3.5 20:59:01 10° S 21:03:32 78° E 21:08:01 10° N
Cosmos 220 Rocket 4.0 21:00:47 10° NNW 21:05:16 86° ENE 21:09:42 10° SSE
Cosmos 1939 Rocket 3.8 21:04:38 16° SE 21:07:10 30° ENE 21:10:41 10° N
Cosmos 1992 Rocket 3.9 21:03:11 10° SSW 21:08:25 80° ESE 21:13:40 10° NNE
Cosmos 2279 Rocket 4.0 21:03:19 10° S 21:09:27 64° E 21:15:36 10° NNE
Cosmos 2195 Rocket 4.4 21:03:45 10° N 21:09:54 83° E 21:16:04 10° S
Intercosmos 25 Rocket 2.9 21:08:18 10° S 21:11:27 82° E 21:15:19 10° N
Cosmos 1627 Rocket 4.4 21:05:44 10° N 21:11:56 83° E 21:18:04 10° S
Atlas Centaur 2 2.9 21:10:23 10° WSW 21:16:39 52° S 21:22:34 17° E
Cosmos 2263 Rocket 2.4 21:11:36 10° NNW 21:17:03 53° ENE 21:20:53 19° SE
Lacrosse 4 Rocket 1.7 21:17:47 10° NNW 21:22:08 73° WSW 21:25:39 16° SSE
Helios 1B rocket 2.3 21:18:33 10° NNE 21:22:40 87° ESE 21:26:46 10° SSW
Cosmos 2322 Rocket 3.2 21:18:46 10° SW 21:24:11 50° WNW 21:29:38 10° N
Resurs 01 Rocket 2.9 21:20:47 10° S 21:24:57 40° W 21:29:10 10° NNW
Cosmos 1428 Rocket 4.4 21:20:15 10° N 21:26:19 66° E 21:31:41 14° SSE
SAR-Lupe-4 3.5 21:27:54 20° SSE 21:30:14 90° ENE 21:33:51 10° NNW
COSMOS 2428 3.5 21:29:08 23° SE 21:31:10 28° ESE 21:35:57 10° NE
Cosmos 2360 Rocket 2.1 21:26:51 10° SSW 21:32:27 71° ESE 21:38:06 10° NNE
Cosmos 1825 3.0 21:31:57 10° NNW 21:35:38 50° W 21:39:18 10° S
OAO 3 Rocket 3.2 21:33:25 10° W 21:38:18 73° S 21:40:29 33° ESE
Cosmos 1908 Rocket 3.8 21:39:57 10° N 21:44:08 48° E 21:45:06 40° ESE
Sich 1 Rocket 3.8 21:41:22 10° N 21:45:46 51° E 21:46:54 40° SE
Cosmos 968 Rocket 3.7 21:41:37 10° N 21:46:43 52° ENE 21:48:27 36° ESE
SAR-Lupe-1 4.4 21:45:53 27° S 21:47:36 61° WSW 21:51:10 10° NNW
Cosmos 2322 3.6 21:41:59 10° SSW 21:47:41 82° ESE 21:53:25 10° NNE
ATLAS 5 CENTAUR R/B 2.5 21:44:39 10° NNW 21:50:43 65° ENE 21:53:35 34° SE
SL-16 R/B 4.3 21:49:28 10° WSW 21:54:20 29° WNW 21:59:13 10° N
ARGOS 3.9 21:56:21 31° E 21:57:09 32° ENE 22:01:52 10° N
Envisat 3.5 21:54:22 17° S 21:58:11 56° W 22:03:11 10° NNW
Cosmos 1782 Rocket 4.1 21:54:29 10° N 21:58:28 39° ENE 21:58:28 39° ENE
H-2A R/B 3.5 21:59:46 19° ENE 21:59:46 19° ENE 22:03:05 10° NNE
Cosmos 1867 3.6 21:54:21 10° NNW 21:59:46 63° ENE 22:01:17 45° ESE
USA 234 3.4 21:56:41 32° ESE 21:59:47 63° NE 22:06:14 10° NW
Cosmos 1733 Rocket 4.3 21:57:38 10° NNW 22:01:47 39° W 22:05:12 14° SSW
Okean 1-7 3.1 22:08:38 57° ENE 22:08:38 57° ENE 22:12:43 10° NNE
Cosmos 2333 4.2 22:08:24 44° SSE 22:09:50 56° ESE 22:15:28 10° NNE
Cosmos 2237 Rocket 4.4 22:14:05 11° ENE 22:14:05 11° ENE 22:14:19 10° ENE
Okean 2 Rocket 3.9 22:06:28 10° N 22:10:03 36° ENE 22:10:03 36° ENE
Cosmos 2333 Rocket 3.8 22:13:24 20° ENE 22:13:24 20° ENE 22:15:39 10° NE
SEDSat Delta rocket 3.7 22:10:35 10° W 22:15:46 53° S 22:16:15 52° SSE
Cosmos 2278 Rocket 4.1 22:14:05 10° NNE 22:17:19 15° NE 22:17:43 15° ENE
BREEZE-M DEB (TANK) 4.3 21:59:24 10° NW 22:18:50 77° SW 22:20:45 47° SSE
Cosmos 1844 Rocket 3.4 22:13:53 10° N 22:19:00 36° ENE 22:19:16 36° ENE
YAOGAN 6 3.4 22:21:30 48° W 22:21:30 48° W 22:24:58 10° NNW
ERS-1 Rocket 3.1 22:22:03 50° SSW 22:23:16 71° WSW 22:28:17 10° NNW
MetOp-A 4.0 22:25:28 66° SSE 22:26:16 85° ENE 22:31:38 10° NNW
Nimbus 7 Rocket 4.3 22:21:07 10° NNE 22:27:02 62° ESE 22:27:31 60° SE
SeaSat 1 3.2 22:27:56 39° NE 22:27:56 39° NE 22:32:19 10° N
Cosmos 1703 Rocket 4.4 22:27:00 34° SW 22:28:32 49° W 22:32:50 10° N
Milstar 3 3.6 22:24:50 10° W 22:31:15 32° SSW 22:31:42 31° SSW
Cosmos 1782 4.4 22:36:14 29° NNE 22:36:14 29° NNE 22:38:16 10° N
Cosmos 2219 Rocket 2.6 22:37:34 46° NE 22:37:34 46° NE 22:41:44 10° NNE
NOSS 3-1 (C) 3.1 22:42:31 77° E 22:42:31 77° E 22:48:34 10° NE
Cosmos 2266 Rocket 4.5 22:38:43 10° NNW 22:44:53 57° W 22:47:08 38° SSW
SPOT 1/Viking Rocket 3.7 22:47:41 63° NNE 22:47:41 63° NNE 22:52:15 10° N
SPOT 5 3.1 22:50:39 64° NW 22:50:39 64° NW 22:54:44 10° NNW
NOSS 3-1 (A) 4.0 23:00:30 43° NE 23:00:30 43° NE 23:04:41 10° NE
Cosmos 1777 Rocket 4.3 22:53:21 10° NNW 22:58:03 63° WNW 22:58:03 63° WNW
NOSS 0 Rocket 4.5 23:01:38 45° NE 23:01:38 45° NE 23:05:53 10° NNE
Cosmos 2263 Rocket 4.3 22:56:54 10° WNW 23:00:27 17° W 23:02:37 14° SW
Atlas Centaur 2 3.1 22:58:53 10° W 23:05:12 55° SSW 23:05:12 55° SSW
Cosmos 1244 Rocket 4.5 23:04:25 10° N 23:10:33 79° WNW 23:10:33 79° WNW
H-2A R/B 4.0 23:14:15 25° N 23:14:15 25° N 23:16:08 10° N
MOS 1-B Rocket 4.3 23:12:55 55° WSW 23:12:58 55° WSW 23:18:32 10° NNW
COSMOS 2428 4.1 23:10:54 14° WSW 23:15:15 35° WNW 23:20:26 10° N
Cosmos 1553 Rocket 4.2 23:17:12 67° NNE 23:17:12 67° NNE 23:22:32 10° N
Meteor 1-11 Rocket 4.5 23:14:38 10° N 23:18:30 45° NNE 23:18:30 45° NNE
CZ-4C R/B 3.3 23:17:18 10° NNW 23:24:19 50° NE 23:24:27 50° ENE
Cosmos 1844 4.5 23:25:45 10° NNW 23:29:52 48° NW 23:29:52 48° NW
SL-16 R/B 4.4 23:36:36 15° NE 23:36:36 15° NE 23:37:37 10° NE
ATLAS 5 CENTAUR R/B 4.2 23:30:35 10° WNW 23:35:05 21° WSW 23:35:10 21° WSW
Terra 3.6 23:40:44 29° NNW 23:40:44 29° NNW 23:43:04 10° NNW
H-2A R/B 3.5 23:40:23 31° NW 23:40:23 31° NW 23:43:23 10° NNW
USA 234 4.5 23:44:02 30° WSW 23:44:02 30° WSW 23:48:39 10° WNW
Cosmos 2237 Rocket 3.5 23:55:50 37° NNW 23:55:50 37° NNW 23:59:34 10° N
